Tracking 30058 objects as of 10-Dec-2024
HD Live streaming from Space Station
objects crossing your sky now

STARLINK-31412

Track STARLINK-31412 now!
10-day predictions
STARLINK-31412 is classified as:


NORAD ID: 59410
Int'l Code: 2024-064N
Perigee: 449.5 km
Apogee: 452.8 km
Inclination: 43.0 °
Period: 93.5 minutes
Semi major axis: 6822 km
RCS: Unknown
Launch date: April 5, 2024
Source: United States (US)
Launch site: AIR FORCE EASTERN TEST RANGE (AFETR)
Your satellite tracking list
Your tracking list is empty




NASA's NSSDC Master Catalog

Two Line Element Set (TLE):
1 59410U 24064N   24344.64432151 -.00004572  00000-0 -10221-3 0  9997
2 59410  43.0017 112.8517 0002441 289.3386  70.7206 15.40705141 39553
Source of the keplerian elements: AFSPC